User: anonymous   Login
Location: Austin, TX
(30.3000°N, 97.7500°W)
Time: 22:37:05
(UTC-06:00)
Language:

Cosmos 2082 Rocket - Orbit

View from above orbital plane
View from above orbital plane
View from above satellite
View from above satellite

Ground track
Ground track

The orbit data is extracted from the following two-line orbital elements,

1 20625U 90046B   14326.14017899 -.00000245  00000-0 -10284-3 0  8719
2 20625 070.9996 317.8156 0011726 090.8037 317.3433 14.14550088265184
Epoch (UTC): 22 November 2014 03:21:51
Eccentricity: 0.0011726
inclination: 70.9996°
perigee height: 835 km
apogee height: 852 km
right ascension of ascending node: 317.8156°
argument of perigee: 90.8037°
revolutions per day: 14.14550088
mean anomaly at epoch: 317.3433°
orbit number at epoch: 26518

The dashed part of the orbit path shows where the satellite is in the earth's shadow,  

DLR